User: anonymous   Login
Location: Fort Wayne
(41.1310°N, 85.1290°W)
Time: 03:00:58
(UTC-04:00)
Language:

BREEZE-M DEB (TANK) - Orbit

View from above orbital plane
View from above orbital plane
View from above satellite
View from above satellite

Ground track
Ground track

The orbit data is extracted from the following two-line orbital elements,

1 27821U 03024B   18141.00500448 +.00000740 +00000-0 +89853-4 0  9993
2 27821 049.6231 329.9328 4921905 288.1855 025.5786 05.77811245299957
Epoch (UTC): 21 May 2018 00:07:12
Eccentricity: 0.4921905
inclination: 49.6231°
perigee height: 283 km
apogee height: 13197 km
right ascension of ascending node: 329.9328°
argument of perigee: 288.1855°
revolutions per day: 5.77811245
mean anomaly at epoch: 25.5786°
orbit number at epoch: 29995

The dashed part of the orbit path shows where the satellite is in the earth's shadow,  

DLR